Location: Montbazon
(47.2835°N, 0.6999°E)
Time: 16:43:07
(UTC+00:00)

Cosmos 2333 Rocket - Pass Details

Date: 08 November 2025
Orbit: 837 x 865 km, 70.8° (Epoch: 09 December)

Event Time Altitude Azimuth Distance (km) Brightness Sun altitude
Exits shadow 03:39:29 27° 10° (N) 1,592 3.7 -32.6°
Drops below altitude 10° 03:42:07 10° 21° (NNE) 2,504 5.0 -32.2°
Sets 03:44:40 0° 26° (NNE) 3,448 5.8 -31.7°
